Location: Newark
(45.6833°N, 12.6333°E)
Time: 09:57:14
(UTC+00:00)

N. Korean satellite - Pass Details

Date: 26 November 2019
Orbit: 456 x 506 km, 97.2° (Epoch: 06 December)

Event Time Altitude Azimuth Distance (km) Brightness Sun altitude
Rises 04:42:14 0° 18° (NNE) 2,602 10.3 -17.2°
Reaches altitude 10° 04:44:25 10° 25° (NNE) 1,707 9.5 -16.8°
Maximum altitude 04:47:56 43° 98° (E) 702 7.9 -16.2°
Drops below altitude 10° 04:51:22 10° 171° (S) 1,666 9.6 -15.7°
Sets 04:53:28 0° 179° (S) 2,531 10.4 -15.3°
